Time,TemperatureF,DewpointF,PressureIn,WindDirection,WindDirectionDegrees,WindSpeedMPH,WindSpeedGustMPH,Humidity,HourlyPrecipIn,Conditions,Clouds,dailyrainin,SoftwareType,DateUTC
2013-02-20 00:00:00,61.0,55.1,29.99,North,-999,0.0,0.0,81,0.00,,,-99.99,WeatherLink 5.7,2013-02-20 05:00:00,
2013-02-20 00:15:00,61.0,55.5,29.99,North,-999,0.0,0.0,82,0.00,,,-99.99,WeatherLink 5.7,2013-02-20 05:15:00,
2013-02-20 00:30:00,61.0,55.5,29.99,North,-999,0.0,0.0,82,0.00,,,-99.99,WeatherLink 5.7,2013-02-20 05:30:00,
2013-02-20 00:45:00,61.0,55.5,29.99,North,-999,0.0,0.0,82,0.00,,,-99.99,WeatherLink 5.7,2013-02-20 05:45:00,
2013-02-20 01:00:00,61.2,56.0,29.99,North,-999,0.0,0.0,83,0.00,,,-99.99,WeatherLink 5.7,2013-02-20 06:00:00,
2013-02-20 01:15:00,61.1,55.9,29.99,North,-999,0.0,0.0,83,0.00,,,-99.99,WeatherLink 5.7,2013-02-20 06:15:00,
2013-02-20 01:30:00,61.0,55.8,29.99,North,-999,0.0,0.0,83,0.00,,,-99.99,WeatherLink 5.7,2013-02-20 06:30:00,
2013-02-20 01:45:00,61.0,55.8,29.98,North,-999,0.0,0.0,83,0.00,,,-99.99,WeatherLink 5.7,2013-02-20 06:45:00,
2013-02-20 02:00:00,60.9,56.0,29.98,North,-999,0.0,0.0,84,0.00,,,-99.99,WeatherLink 5.7,2013-02-20 07:00:00,
2013-02-20 02:15:00,61.3,57.7,29.99,North,0,0.0,5.0,88,0.00,,,-99.99,WeatherLink 5.7,2013-02-20 07:15:00,
2013-02-20 02:30:00,62.8,59.2,29.99,North,-999,0.0,0.0,88,0.00,,,-99.99,WeatherLink 5.7,2013-02-20 07:30:00,
2013-02-20 02:45:00,63.7,60.1,29.98,North,0,0.0,5.0,88,0.00,,,-99.99,WeatherLink 5.7,2013-02-20 07:45:00,
2013-02-20 03:00:00,64.2,60.6,29.97,North,0,1.0,6.0,88,0.00,,,-99.99,WeatherLink 5.7,2013-02-20 08:00:00,
2013-02-20 03:15:00,64.2,60.6,29.97,North,0,0.0,6.0,88,0.00,,,-99.99,WeatherLink 5.7,2013-02-20 08:15:00,
2013-02-20 03:30:00,64.1,60.5,29.97,North,0,0.0,5.0,88,0.00,,,-99.99,WeatherLink 5.7,2013-02-20 08:30:00,
2013-02-20 03:45:00,63.8,60.2,29.97,North,0,1.0,7.0,88,0.00,,,-99.99,WeatherLink 5.7,2013-02-20 08:45:00,
2013-02-20 04:00:00,63.5,59.9,29.96,North,0,0.0,5.0,88,0.00,,,-99.99,WeatherLink 5.7,2013-02-20 09:00:00,
2013-02-20 04:15:00,63.4,59.8,29.97,North,-999,0.0,0.0,88,0.00,,,-99.99,WeatherLink 5.7,2013-02-20 09:15:00,
2013-02-20 04:30:00,63.4,60.1,29.97,North,0,0.0,6.0,89,0.00,,,-99.99,WeatherLink 5.7,2013-02-20 09:30:00,
2013-02-20 04:45:00,63.3,60.0,29.97,North,0,0.0,6.0,89,0.00,,,-99.99,WeatherLink 5.7,2013-02-20 09:45:00,
2013-02-20 05:00:00,63.1,59.8,29.98,North,0,2.0,9.0,89,0.00,,,-99.99,WeatherLink 5.7,2013-02-20 10:00:00,
2013-02-20 05:15:00,62.8,59.5,29.99,North,0,1.0,7.0,89,0.00,,,-99.99,WeatherLink 5.7,2013-02-20 10:15:00,
2013-02-20 05:30:00,62.6,59.3,29.99,North,0,0.0,6.0,89,0.00,,,-99.99,WeatherLink 5.7,2013-02-20 10:30:00,
2013-02-20 05:45:00,62.4,59.1,29.99,North,-999,0.0,0.0,89,0.00,,,-99.99,WeatherLink 5.7,2013-02-20 10:45:00,
2013-02-20 06:00:00,62.4,59.1,30.00,North,-999,0.0,0.0,89,0.00,,,-99.99,WeatherLink 5.7,2013-02-20 11:00:00,
2013-02-20 06:15:00,62.3,59.0,30.00,North,-999,0.0,0.0,89,0.00,,,-99.99,WeatherLink 5.7,2013-02-20 11:15:00,
2013-02-20 06:30:00,62.3,59.0,30.00,North,-999,0.0,0.0,89,0.00,,,-99.99,WeatherLink 5.7,2013-02-20 11:30:00,
2013-02-20 06:45:00,62.3,59.0,30.01,North,-999,0.0,0.0,89,0.00,,,-99.99,WeatherLink 5.7,2013-02-20 11:45:00,
2013-02-20 07:00:00,62.3,59.0,30.01,North,-999,0.0,0.0,89,0.00,,,-99.99,WeatherLink 5.7,2013-02-20 12:00:00,
2013-02-20 07:15:00,62.1,59.1,30.02,North,-999,0.0,0.0,90,0.00,,,-99.99,WeatherLink 5.7,2013-02-20 12:15:00,
2013-02-20 07:30:00,62.1,59.1,30.02,North,-999,0.0,0.0,90,0.00,,,-99.99,WeatherLink 5.7,2013-02-20 12:30:00,
2013-02-20 07:45:00,62.1,59.1,30.02,North,-999,0.0,0.0,90,0.01,,,-99.99,WeatherLink 5.7,2013-02-20 12:45:00,
2013-02-20 08:00:00,62.3,59.3,30.03,North,0,0.0,6.0,90,0.02,,,-99.99,WeatherLink 5.7,2013-02-20 13:00:00,
2013-02-20 08:15:00,62.4,59.4,30.02,North,0,1.0,7.0,90,0.03,,,-99.99,WeatherLink 5.7,2013-02-20 13:15:00,
2013-02-20 08:30:00,62.4,59.7,30.01,North,0,0.0,7.0,91,0.03,,,-99.99,WeatherLink 5.7,2013-02-20 13:30:00,
2013-02-20 08:45:00,62.4,59.4,30.02,North,0,0.0,1.0,90,0.02,,,-99.99,WeatherLink 5.7,2013-02-20 13:45:00,
2013-02-20 09:00:00,62.4,59.7,30.02,North,0,0.0,6.0,91,0.01,,,-99.99,WeatherLink 5.7,2013-02-20 14:00:00,
2013-02-20 09:15:00,62.7,60.0,30.02,North,0,0.0,5.0,91,0.00,,,-99.99,WeatherLink 5.7,2013-02-20 14:15:00,
2013-02-20 09:30:00,63.0,60.0,30.02,North,0,0.0,7.0,90,0.00,,,-99.99,WeatherLink 5.7,2013-02-20 14:30:00,
2013-02-20 09:45:00,63.1,60.1,30.03,North,0,0.0,6.0,90,0.00,,,-99.99,WeatherLink 5.7,2013-02-20 14:45:00,
2013-02-20 10:00:00,63.2,60.2,30.02,North,-999,0.0,0.0,90,0.00,,,-99.99,WeatherLink 5.7,2013-02-20 15:00:00,
2013-02-20 10:15:00,63.4,60.4,30.02,North,0,0.0,5.0,90,0.00,,,-99.99,WeatherLink 5.7,2013-02-20 15:15:00,
2013-02-20 10:30:00,63.9,60.9,30.03,North,-999,0.0,0.0,90,0.00,,,-99.99,WeatherLink 5.7,2013-02-20 15:30:00,
2013-02-20 10:45:00,64.6,61.0,30.03,North,-999,0.0,0.0,88,0.00,,,-99.99,WeatherLink 5.7,2013-02-20 15:45:00,
2013-02-20 11:00:00,65.7,61.7,30.02,North,0,0.0,5.0,87,0.00,,,-99.99,WeatherLink 5.7,2013-02-20 16:00:00,
2013-02-20 11:15:00,67.0,61.7,30.02,North,-999,0.0,0.0,83,0.00,,,-99.99,WeatherLink 5.7,2013-02-20 16:15:00,
2013-02-20 11:30:00,68.0,61.9,30.00,North,0,0.0,4.0,81,0.00,,,-99.99,WeatherLink 5.7,2013-02-20 16:30:00,
2013-02-20 11:45:00,68.9,62.8,30.00,North,-999,0.0,0.0,81,0.00,,,-99.99,WeatherLink 5.7,2013-02-20 16:45:00,
2013-02-20 12:00:00,69.7,62.9,29.99,North,0,0.0,4.0,79,0.00,,,-99.99,WeatherLink 5.7,2013-02-20 17:00:00,
2013-02-20 12:15:00,70.8,63.2,29.97,North,0,0.0,2.0,77,0.00,,,-99.99,WeatherLink 5.7,2013-02-20 17:15:00,
2013-02-20 12:30:00,71.4,63.4,29.98,North,0,0.0,5.0,76,0.00,,,-99.99,WeatherLink 5.7,2013-02-20 17:30:00,
2013-02-20 12:45:00,72.0,63.3,29.97,North,0,0.0,1.0,74,0.00,,,-99.99,WeatherLink 5.7,2013-02-20 17:45:00,
2013-02-20 13:00:00,72.7,63.5,29.97,North,0,0.0,6.0,73,0.00,,,-99.99,WeatherLink 5.7,2013-02-20 18:00:00,
2013-02-20 13:15:00,72.8,63.2,29.96,North,0,0.0,7.0,72,0.00,,,-99.99,WeatherLink 5.7,2013-02-20 18:15:00,
2013-02-20 13:30:00,72.6,62.7,29.96,North,0,0.0,7.0,71,0.00,,,-99.99,WeatherLink 5.7,2013-02-20 18:30:00,
2013-02-20 13:45:00,72.3,62.4,29.96,North,0,0.0,7.0,71,0.00,,,-99.99,WeatherLink 5.7,2013-02-20 18:45:00,
2013-02-20 14:00:00,72.0,61.7,29.94,North,-999,0.0,0.0,70,0.00,,,-99.99,WeatherLink 5.7,2013-02-20 19:00:00,
2013-02-20 14:15:00,72.2,61.9,29.94,North,0,0.0,5.0,70,0.00,,,-99.99,WeatherLink 5.7,2013-02-20 19:15:00,
2013-02-20 14:30:00,72.6,62.3,29.95,North,-999,0.0,0.0,70,0.00,,,-99.99,WeatherLink 5.7,2013-02-20 19:30:00,
2013-02-20 14:45:00,73.2,62.0,29.94,North,0,0.0,7.0,68,0.00,,,-99.99,WeatherLink 5.7,2013-02-20 19:45:00,
2013-02-20 15:00:00,72.9,61.3,29.94,North,0,0.0,9.0,67,0.00,,,-99.99,WeatherLink 5.7,2013-02-20 20:00:00,
2013-02-20 15:15:00,71.1,59.6,29.95,North,0,2.0,9.0,67,0.00,,,-99.99,WeatherLink 5.7,2013-02-20 20:15:00,
2013-02-20 15:30:00,69.2,58.2,29.95,North,0,4.0,14.0,68,0.00,,,-99.99,WeatherLink 5.7,2013-02-20 20:30:00,
2013-02-20 15:45:00,67.5,57.0,29.96,North,0,2.0,13.0,69,0.00,,,-99.99,WeatherLink 5.7,2013-02-20 20:45:00,
2013-02-20 16:00:00,66.7,56.2,29.97,North,0,3.0,11.0,69,0.00,,,-99.99,WeatherLink 5.7,2013-02-20 21:00:00,
2013-02-20 16:15:00,66.7,56.2,29.97,North,0,4.0,12.0,69,0.00,,,-99.99,WeatherLink 5.7,2013-02-20 21:15:00,
2013-02-20 16:30:00,66.8,56.3,29.97,North,0,1.0,9.0,69,0.00,,,-99.99,WeatherLink 5.7,2013-02-20 21:30:00,
2013-02-20 16:45:00,66.7,55.8,29.98,North,0,1.0,9.0,68,0.00,,,-99.99,WeatherLink 5.7,2013-02-20 21:45:00,
2013-02-20 17:00:00,66.4,55.5,29.97,North,0,1.0,9.0,68,0.00,,,-99.99,WeatherLink 5.7,2013-02-20 22:00:00,
2013-02-20 17:15:00,65.9,55.0,29.97,North,0,1.0,7.0,68,0.00,,,-99.99,WeatherLink 5.7,2013-02-20 22:15:00,
2013-02-20 17:30:00,65.6,55.2,29.97,North,0,0.0,5.0,69,0.00,,,-99.99,WeatherLink 5.7,2013-02-20 22:30:00,
2013-02-20 17:45:00,65.2,54.8,29.97,North,-999,0.0,0.0,69,0.00,,,-99.99,WeatherLink 5.7,2013-02-20 22:45:00,
2013-02-20 18:00:00,64.8,54.8,29.97,North,-999,0.0,0.0,70,0.00,,,-99.99,WeatherLink 5.7,2013-02-20 23:00:00,
2013-02-20 18:15:00,64.4,54.4,29.97,North,-999,0.0,0.0,70,0.00,,,-99.99,WeatherLink 5.7,2013-02-20 23:15:00,
2013-02-20 18:30:00,63.9,54.3,29.98,North,-999,0.0,0.0,71,0.00,,,-99.99,WeatherLink 5.7,2013-02-20 23:30:00,
2013-02-20 18:45:00,63.3,53.7,29.98,North,-999,0.0,0.0,71,0.00,,,-99.99,WeatherLink 5.7,2013-02-20 23:45:00,
2013-02-20 19:00:00,62.7,53.2,29.99,North,0,0.0,3.0,71,0.00,,,-99.99,WeatherLink 5.7,2013-02-21 00:00:00,
2013-02-20 19:15:00,62.1,52.6,29.99,North,-999,0.0,0.0,71,0.00,,,-99.99,WeatherLink 5.7,2013-02-21 00:15:00,
2013-02-20 19:30:00,61.6,52.5,29.99,North,-999,0.0,0.0,72,0.00,,,-99.99,WeatherLink 5.7,2013-02-21 00:30:00,
2013-02-20 19:45:00,61.1,52.0,29.99,North,-999,0.0,0.0,72,0.00,,,-99.99,WeatherLink 5.7,2013-02-21 00:45:00,
2013-02-20 20:00:00,60.7,52.0,29.99,North,-999,0.0,0.0,73,0.00,,,-99.99,WeatherLink 5.7,2013-02-21 01:00:00,
2013-02-20 20:15:00,60.3,52.0,29.99,North,-999,0.0,0.0,74,0.00,,,-99.99,WeatherLink 5.7,2013-02-21 01:15:00,
2013-02-20 20:30:00,60.0,51.7,30.00,North,-999,0.0,0.0,74,0.00,,,-99.99,WeatherLink 5.7,2013-02-21 01:30:00,
2013-02-20 20:45:00,59.6,51.7,30.00,North,-999,0.0,0.0,75,0.00,,,-99.99,WeatherLink 5.7,2013-02-21 01:45:00,
2013-02-20 21:00:00,59.4,51.8,30.00,North,-999,0.0,0.0,76,0.00,,,-99.99,WeatherLink 5.7,2013-02-21 02:00:00,
2013-02-20 21:15:00,59.3,51.7,30.00,North,-999,0.0,0.0,76,0.00,,,-99.99,WeatherLink 5.7,2013-02-21 02:15:00,
2013-02-20 21:30:00,59.2,52.0,30.00,North,-999,0.0,0.0,77,0.00,,,-99.99,WeatherLink 5.7,2013-02-21 02:30:00,
2013-02-20 21:45:00,59.2,52.0,30.00,North,-999,0.0,0.0,77,0.00,,,-99.99,WeatherLink 5.7,2013-02-21 02:45:00,
2013-02-20 22:00:00,59.0,51.8,30.00,North,-999,0.0,0.0,77,0.00,,,-99.99,WeatherLink 5.7,2013-02-21 03:00:00,
2013-02-20 22:15:00,58.7,51.9,30.00,North,-999,0.0,0.0,78,0.00,,,-99.99,WeatherLink 5.7,2013-02-21 03:15:00,
2013-02-20 22:30:00,58.5,51.3,29.99,North,-999,0.0,0.0,77,0.00,,,-99.99,WeatherLink 5.7,2013-02-21 03:30:00,
2013-02-20 22:45:00,58.1,50.9,29.98,North,-999,0.0,0.0,77,0.00,,,-99.99,WeatherLink 5.7,2013-02-21 03:45:00,
2013-02-20 23:15:00,57.2,50.4,29.98,North,-999,0.0,0.0,78,0.00,,,-99.99,WeatherLink 5.7,2013-02-21 04:15:00,
2013-02-20 23:20:00,57.6,50.4,29.98,North,-999,0.0,0.0,77,0.00,,,-99.99,WeatherLink 5.7,2013-02-21 04:20:00,
2013-02-20 23:30:00,56.9,50.1,29.97,North,-999,0.0,0.0,78,0.00,,,-99.99,WeatherLink 5.7,2013-02-21 04:30:00,
2013-02-20 23:45:00,56.6,49.8,29.97,North,-999,0.0,0.0,78,0.00,,,-99.99,WeatherLink 5.7,2013-02-21 04:45:00,